Tracking 20041 objects as of 22-Nov-2019
Live streaming from Space Station
objects crossing your sky now

NOAA 16 DEB

Track NOAA 16 DEB now!
10-day predictions


NORAD ID: 41430
Int'l Code: 2000-055LK
Perigee: 790.2 km
Apogee: 860.7 km
Inclination: 98.9 °
Period: 101.3 minutes
Semi major axis: 7196 km
RCS: Unknown
Launch date: September 21, 2000
Source: United States (US)
Launch site: AIR FORCE WESTERN TEST RANGE (AFWTR)

Note: This is SATELLITE DEBRIS
aabbcc
Your satellite tracking list
Your tracking list is empty




NASA's NSSDC Master Catalog

Two Line Element Set (TLE):
1 41430U 00055LK  19325.14585005  .00000842  00000-0  39643-3 0  9992
2 41430  98.9206  66.8680 0048932 288.3860  71.2000 14.22086968198850
Source of the keplerian elements: AFSPC